Theta_e
342 343 345 348 348 344 348 348 342 342 342 342 341 342 344 345 341 336 337 338 338 337 337 339 339 339 339 337 335 334 336 331 332 337 335 335 335 337 338 339 340 339 338 339 340 339 339 341 341
344 348 345 344 349 350 351 344 343 341 341 341 344 344 345 346 342 338 338 338 337 338 338 338 339 339 337 337 337 334 338 337 336 335 337 335 337 336 337 338 339 340 342 343 342 343 343 342 341
342 348 346 347 350 351 349 344 344 341 341 345 346 346 347 345 339 337 335 335 337 336 337 338 340 338 335 335 336 334 337 337 336 336 336 337 336 336 338 338 338 341 342 341 340 342 342 340 341
348 348 346 351 353 350 350 343 343 343 344 344 344 346 345 342 338 337 336 334 335 335 336 338 340 339 335 334 337 337 335 338 337 335 336 335 339 339 336 337 339 340 338 339 341 341 339 335 334
347 348 347 350 351 349 348 342 343 345 345 344 345 346 345 344 339 337 336 335 334 335 339 339 341 340 338 337 337 334 337 334 332 336 337 333 331 334 337 337 332 330 337 339 340 339 339 339 331
349 349 350 353 351 349 348 344 346 346 346 345 345 345 346 345 337 337 338 337 338 335 340 339 342 343 339 339 337 324 332 337 337 339 337 340 336 339 331 327 328 331 339 338 338 341 340 339 338
349 349 351 351 352 350 350 346 346 345 345 345 344 344 346 342 338 338 338 337 335 338 338 341 341 340 342 339 338 337 338 337 338 336 334 336 333 326 325 325 326 331 339 339 340 340 340 340 339
350 347 349 349 352 351 345 345 346 345 346 344 341 343 345 340 339 339 336 332 335 339 334 331 336 339 343 339 336 336 337 338 334 332 334 328 327 326 324 326 327 337 340 340 341 341 341 341 341
340 351 351 349 350 350 347 346 344 345 345 345 346 342 339 338 335 333 334 335 336 331 328 328 329 331 338 339 337 333 336 335 335 335 329 327 327 328 330 333 337 340 340 341 341 341 341 339 338
344 350 350 346 346 348 346 348 346 345 346 346 344 343 339 337 340 336 335 332 330 331 335 332 328 332 335 342 338 334 335 337 337 336 330 336 337 337 335 337 339 340 339 339 338 338 338 337 337
342 350 347 346 346 344 346 347 344 346 347 345 344 344 343 343 343 337 333 333 332 332 333 332 329 333 333 338 336 332 334 336 337 334 337 343 344 344 341 342 342 341 341 341 342 339 337 337 337
349 349 345 347 346 347 348 347 344 344 346 342 343 343 344 344 340 339 338 336 333 332 336 335 335 334 333 337 333 332 332 336 338 338 341 341 341 339 341 342 342 342 342 342 344 343 341 339 337
347 349 347 349 345 346 347 347 346 344 344 344 344 345 345 343 342 342 339 339 336 339 337 335 334 331 333 337 329 332 339 337 338 338 341 340 338 340 340 341 342 341 343 343 344 343 342 341 340
350 347 347 347 346 346 346 347 344 343 345 346 345 346 345 343 343 341 342 341 340 340 337 335 334 334 335 336 337 344 341 338 339 339 339 341 338 340 339 341 341 342 343 343 342 343 343 342 341
347 349 347 345 346 348 348 351 348 345 345 346 346 346 345 344 343 341 342 342 340 340 340 338 339 339 338 338 339 341 341 340 336 339 340 340 339 341 342 340 340 342 342 343 343 343 343 341 340
348 346 349 346 347 346 346 354 347 347 346 346 346 346 345 345 344 341 343 342 342 341 341 341 343 341 339 338 340 341 340 340 340 342 343 342 340 341 341 340 340 341 341 341 342 342 343 342 341
339 349 350 349 346 346 346 347 346 346 346 346 346 345 345 345 344 342 342 342 342 342 341 342 343 343 343 344 341 342 342 342 341 341 342 342 340 340 342 343 343 345 344 343 344 342 343 344 345
340 346 349 350 348 346 347 345 346 345 346 346 345 346 345 345 343 343 343 341 342 342 342 343 342 342 341 342 340 342 342 340 341 342 343 342 343 342 342 343 344 345 346 345 346 343 343 343 345
337 344 349 349 345 347 347 348 347 345 346 345 345 344 344 344 343 344 344 342 342 343 342 344 343 341 340 340 341 342 341 340 339 341 343 341 340 341 342 343 342 345 345 345 344 344 344 344 346
324 341 348 345 343 344 347 348 346 345 345 343 344 344 344 344 343 343 344 343 342 342 343 344 343 341 340 340 341 340 341 340 340 340 341 341 342 340 338 344 343 343 344 346 345 343 344 346 346
331 340 347 345 343 340 345 344 348 346 344 343 338 344 344 344 344 343 344 343 342 341 342 342 344 343 341 341 340 341 343 341 342 341 341 339 341 342 340 344 342 343 342 346 347 345 345 345 345
335 341 341 343 341 343 344 349 344 347 345 342 341 342 343 344 344 343 343 343 342 341 341 342 343 343 341 342 340 339 342 342 343 342 344 341 340 341 340 341 342 343 340 345 347 347 347 345 345
330 340 340 342 346 346 346 348 342 346 348 345 341 340 342 343 343 343 343 343 343 342 341 340 340 343 342 340 340 342 341 338 342 343 343 343 341 339 339 340 341 342 341 345 344 346 348 348 347
341 342 340 339 344 347 344 345 343 347 347 345 341 341 341 343 344 343 344 344 343 342 343 344 339 340 341 341 343 343 341 340 341 342 343 343 341 340 342 342 341 342 342 344 344 344 344 346 346
332 331 337 338 344 348 342 348 346 340 342 344 342 341 341 342 344 344 344 344 344 343 343 344 342 341 341 339 340 342 344 343 341 340 341 343 342 340 345 343 342 342 342 342 342 343 344 341 345
332 326 332 341 345 344 345 347 342 338 339 341 342 342 341 340 341 343 344 343 343 343 343 343 343 343 343 343 343 341 342 343 342 342 341 343 343 343 343 342 342 343 344 341 339 342 340 341 340
335 336 332 341 342 345 345 342 339 337 337 339 340 340 340 341 341 342 343 343 343 343 343 343 342 343 343 343 340 340 340 340 340 341 342 342 343 343 344 345 344 345 345 344 340 342 342 339 340
331 329 337 335 347 347 345 343 344 341 342 339 339 339 340 341 341 341 342 342 342 342 343 343 342 342 342 344 341 341 340 341 341 343 343 342 343 345 346 344 343 344 344 344 343 338 339 340 340
320 324 323 330 334 342 346 343 339 337 344 345 344 342 339 340 341 341 341 341 342 341 343 343 343 342 340 343 342 342 344 342 344 345 345 344 344 343 344 343 344 344 344 345 345 345 342 341 342
320 322 318 324 325 334 339 330 339 341 342 344 341 340 341 340 340 342 341 341 342 341 343 344 343 343 342 340 339 341 345 344 344 343 345 344 344 344 345 345 344 345 346 345 344 342 342 344 345
Wind_Speed
2 5 7 1 2 4 2 2 3 8 8 11 19 6 6 8 1 4 21 18 19 18 17 14 12 12 12 13 14 14 14 15 15 15 14 13 14 14 13 13 12 12 13 15 15 14 16 15 14
4 6 3 1 3 4 2 3 9 4 12 30 15 18 6 4 5 22 23 23 20 18 17 14 13 12 12 14 13 14 14 15 14 15 14 13 13 13 13 12 12 13 15 14 15 15 15 16 17
3 7 1 2 2 2 2 5 6 12 28 12 7 13 5 4 19 29 24 24 21 19 17 16 14 13 13 13 13 14 14 14 15 14 13 12 12 12 12 12 12 14 16 17 15 17 17 15 15
4 1 2 4 4 2 2 7 15 11 12 6 16 8 8 7 24 21 26 24 21 19 17 16 14 14 14 14 13 14 14 14 15 13 13 12 11 12 12 11 12 13 13 15 15 16 17 16 16
5 3 4 4 2 5 4 7 7 4 5 9 4 6 12 11 15 26 25 23 21 19 17 15 14 15 14 14 12 13 13 13 14 13 11 11 12 13 12 11 13 14 13 15 16 17 17 19 19
4 2 4 3 2 4 3 9 7 12 14 14 16 14 6 9 24 25 23 21 19 18 16 15 13 12 14 14 14 16 15 13 11 10 12 12 13 11 11 11 12 14 15 15 17 17 17 18 19
3 2 3 3 2 4 5 9 6 7 13 9 15 6 12 21 25 24 22 21 18 17 15 15 13 12 13 13 13 14 14 13 12 12 13 13 13 13 13 13 13 15 16 15 15 15 14 14 15
3 3 3 2 5 2 6 4 9 8 6 18 22 7 11 28 27 24 22 19 17 15 13 13 14 13 14 14 14 14 14 14 14 14 14 14 15 15 15 15 15 16 14 13 12 11 12 13 12
1 3 3 6 7 6 8 3 8 7 17 6 1 22 31 31 26 24 22 19 17 14 13 12 13 13 14 14 13 14 14 16 16 15 16 18 18 18 18 18 17 15 13 10 8 9 9 10 11
2 2 6 3 7 6 8 4 10 9 10 12 27 24 31 30 25 24 23 21 18 16 15 13 13 14 15 14 14 15 15 14 14 15 19 20 19 19 19 17 15 14 11 10 7 6 7 9 11
4 2 5 11 11 17 7 8 4 19 3 16 31 32 33 30 24 23 22 19 17 16 16 15 16 15 14 14 13 15 16 15 16 18 20 19 16 14 13 13 11 9 7 5 3 3 4 7 11
2 1 7 9 18 8 4 5 8 7 6 30 32 35 34 30 26 23 20 18 20 19 16 17 16 15 15 15 14 17 18 17 17 18 18 14 12 12 12 11 11 10 11 11 10 8 6 8 12
3 3 2 3 10 15 7 7 4 5 16 32 32 33 33 29 24 20 19 20 20 18 16 18 17 16 17 16 17 19 17 18 17 18 15 12 11 9 7 10 10 12 11 9 8 9 10 13 15
5 11 6 12 14 15 6 8 5 12 22 29 32 34 31 28 23 23 22 22 20 19 18 17 18 16 17 18 18 15 14 16 17 15 11 7 8 7 7 11 10 8 8 9 8 6 10 11 15
9 5 4 12 4 6 15 12 12 15 28 29 30 31 29 28 25 25 24 22 21 20 20 20 19 17 17 15 14 14 15 15 14 14 8 8 9 8 12 11 8 4 5 5 6 6 6 8 9
3 3 3 4 4 4 5 5 10 18 29 28 26 25 28 27 26 24 22 20 20 19 21 20 18 17 16 16 15 14 13 14 13 9 6 5 9 6 9 7 7 5 5 4 5 6 7 7 9
5 2 3 2 6 3 3 4 5 13 25 25 26 28 27 26 25 25 22 21 20 20 21 22 19 18 15 13 16 14 13 12 9 7 8 8 6 9 10 8 6 7 7 7 7 8 8 9 8
2 4 4 4 6 4 1 5 8 15 15 22 26 27 28 28 30 27 24 21 22 21 20 20 18 16 15 14 18 16 14 10 9 6 11 7 7 7 6 6 6 7 6 5 6 7 9 7 6
4 4 6 4 6 7 4 3 7 19 10 18 24 27 31 32 29 29 25 24 24 23 23 22 20 18 16 17 19 18 17 13 11 9 9 8 7 6 6 5 4 3 3 4 4 7 6 5 6
3 6 3 2 3 3 4 3 4 15 9 9 27 27 35 32 28 32 30 27 26 25 25 24 23 19 17 17 18 16 14 12 12 11 10 8 6 6 7 6 5 2 2 4 3 8 3 3 3
3 5 4 4 3 2 4 2 5 6 8 11 24 34 36 38 33 36 34 31 28 27 27 26 27 23 19 18 19 15 14 13 13 12 11 9 7 6 10 9 6 4 3 2 2 2 2 2 2
4 5 9 10 2 1 5 4 4 9 10 9 15 26 31 37 37 37 35 33 30 28 27 25 27 27 22 19 18 17 17 17 14 11 9 8 10 8 9 7 7 4 3 4 2 2 2 3 2
4 9 8 3 4 2 3 3 5 9 9 12 15 24 33 37 40 41 38 33 30 29 29 25 24 28 25 21 20 18 20 17 14 14 10 9 9 10 10 9 6 6 5 6 6 2 2 3 3
12 8 7 5 3 2 1 7 4 6 16 20 13 24 33 35 39 42 40 35 31 30 29 27 27 27 25 24 20 19 18 17 15 17 14 10 10 11 10 10 7 7 8 8 7 5 2 1 1
6 6 3 3 2 0 4 3 9 9 7 22 20 30 32 37 38 40 40 38 35 32 30 29 30 28 26 27 25 21 20 17 15 17 13 11 12 9 12 9 7 8 8 8 9 8 6 4 2
6 6 5 6 5 3 2 5 5 4 7 26 29 32 32 34 39 43 43 40 36 33 30 29 32 29 27 25 24 23 22 22 19 17 16 14 13 12 11 13 11 10 9 10 10 9 10 11 8
5 4 4 6 3 3 1 5 6 7 13 13 25 31 37 34 40 44 45 42 39 35 31 27 28 29 28 24 22 23 22 22 22 19 19 19 17 15 14 14 14 13 12 11 13 13 11 12 12
7 5 1 2 4 2 3 3 5 10 13 8 16 28 38 43 41 43 46 44 40 36 32 27 24 24 25 25 25 23 21 22 21 20 17 17 17 16 15 15 16 16 15 14 12 14 14 13 13
1 1 2 3 3 5 3 5 4 4 10 9 14 25 31 35 44 43 46 45 42 37 35 29 26 23 22 24 24 24 22 22 21 22 19 18 19 17 16 15 15 15 15 15 15 16 17 17 15
1 1 4 4 3 2 3 4 7 7 2 2 3 13 26 35 41 43 41 45 45 40 37 32 29 25 21 18 22 25 23 22 24 22 20 18 19 19 17 17 15 17 16 15 16 15 15 15 15
Wind_Direction
29 352 357 32 73 74 52 55 115 111 155 156 159 141 112 49 77 166 141 149 148 145 139 141 140 133 126 126 123 128 125 122 119 112 111 107 104 101 98 99 100 103 104 101 100 95 94 84 84
23 10 4 355 68 58 336 353 121 125 149 136 107 119 69 61 102 136 145 148 147 142 138 136 131 128 124 121 121 123 123 122 120 117 109 109 104 103 99 98 96 99 95 91 96 95 89 87 85
22 359 6 97 78 94 106 62 81 108 131 129 109 91 73 80 136 140 147 146 148 141 135 131 131 131 126 127 124 123 126 122 120 120 109 108 101 107 101 101 99 104 96 96 89 95 94 87 92
23 350 47 52 25 62 353 112 114 111 113 92 109 73 75 140 139 147 147 148 147 141 136 131 132 132 128 129 126 130 129 124 124 123 114 111 102 100 102 105 100 112 102 96 92 90 81 74 78
4 55 57 87 348 325 355 95 74 78 83 128 89 83 102 136 148 146 147 150 149 143 136 134 131 135 131 130 129 138 130 124 127 117 110 106 107 100 99 105 110 114 113 93 86 86 85 77 74
29 43 70 93 3 333 6 47 67 88 104 101 99 101 122 151 153 150 150 149 150 143 140 136 134 131 134 133 131 129 132 127 121 114 112 105 103 107 115 108 109 114 109 99 93 87 83 76 71
57 51 113 91 68 51 2 1 79 105 100 91 130 99 136 154 156 152 152 153 154 152 149 148 144 140 139 138 137 134 128 123 122 115 110 114 112 106 104 107 111 113 111 103 96 87 75 69 64
63 92 126 44 152 54 289 9 135 98 69 124 122 148 155 162 158 157 156 158 159 158 160 157 158 150 147 146 143 139 133 125 120 115 111 108 103 99 99 105 111 117 118 111 93 79 68 58 50
12 80 145 159 136 170 230 132 146 134 132 89 219 153 154 155 156 160 162 164 166 167 168 169 165 155 149 140 147 143 136 126 117 112 110 106 101 97 95 100 109 114 111 103 90 77 65 43 38
139 146 185 120 148 177 172 198 151 133 125 104 114 146 152 156 161 167 170 172 172 169 166 167 164 156 156 147 149 146 136 132 127 121 120 114 108 99 96 101 107 113 112 103 93 76 54 40 33
176 218 148 165 150 164 220 242 162 132 110 161 145 158 158 164 169 172 175 177 169 165 166 163 163 162 159 151 150 148 145 143 137 133 127 120 112 105 107 103 108 113 111 109 87 58 44 43 50
184 166 173 159 172 137 137 332 144 159 177 165 155 160 161 167 169 171 174 169 170 166 168 166 162 161 158 155 149 148 144 146 142 139 132 120 109 106 102 101 109 102 101 101 96 82 65 67 69
160 95 68 17 166 145 156 257 31 195 154 166 161 165 166 169 172 172 169 165 161 163 162 162 158 156 157 156 148 144 144 150 149 148 138 123 118 111 97 116 106 113 102 96 89 83 82 79 82
109 94 53 68 144 140 165 214 126 225 162 165 169 172 173 174 179 174 180 171 168 161 155 154 152 156 159 154 153 152 151 157 155 157 147 135 130 114 122 128 119 117 99 101 86 95 77 82 91
128 93 64 39 36 100 167 140 200 190 173 166 173 177 182 183 187 188 180 175 170 163 156 151 147 153 157 161 162 154 155 162 165 160 149 141 133 119 129 133 137 122 86 97 73 76 90 82 94
38 77 88 9 3 48 170 137 195 172 164 166 174 175 188 193 196 195 189 182 180 174 171 164 164 156 153 161 165 162 156 160 166 166 168 147 140 126 140 135 120 108 106 87 78 82 87 93 102
13 87 60 100 1 115 68 135 183 191 177 170 175 184 194 199 202 200 197 193 188 184 177 172 167 168 170 168 168 163 169 170 175 168 156 150 144 136 132 116 111 104 103 91 74 108 123 114 96
166 107 75 53 16 61 48 174 190 181 192 181 183 189 191 198 205 201 200 198 198 192 184 178 176 180 175 173 174 170 171 181 165 172 166 146 141 138 127 129 119 107 96 86 75 119 124 113 94
124 92 87 78 32 20 360 155 193 202 227 203 188 187 198 203 204 207 204 203 200 198 190 184 182 181 177 177 178 180 181 182 177 174 177 171 162 162 175 159 134 121 84 52 38 144 130 110 120
124 123 100 105 124 116 272 235 174 202 241 269 196 191 203 205 207 208 209 204 201 201 198 192 191 190 182 181 173 172 175 186 188 189 187 183 170 167 194 173 167 149 118 49 55 135 114 91 122
197 139 165 146 217 156 298 273 162 203 216 253 203 199 205 206 205 207 206 204 202 200 198 197 198 197 196 192 182 182 185 180 190 184 180 172 185 199 186 185 182 181 173 162 124 134 35 62 44
215 196 122 134 129 84 78 300 213 183 205 223 200 199 205 208 205 207 204 204 200 199 196 198 204 201 202 202 203 193 189 186 184 177 170 178 187 191 189 189 188 187 217 203 156 110 60 44 2
171 115 108 117 83 56 85 307 268 166 209 223 214 203 207 207 207 206 205 205 200 199 199 198 202 203 204 202 201 199 199 198 191 194 194 201 205 195 191 197 209 212 222 209 212 201 97 59 49
120 91 52 65 51 71 242 200 270 184 214 205 213 207 205 204 206 208 205 207 205 204 203 203 203 205 208 206 207 211 207 202 210 210 209 214 211 207 200 202 222 225 228 225 221 229 235 33 51
87 85 46 24 43 230 286 225 266 272 198 199 204 210 202 210 209 207 205 208 208 207 206 206 206 208 210 212 222 225 218 219 221 210 209 217 209 213 209 211 235 233 234 239 234 242 252 269 282
180 136 156 165 188 208 78 228 250 239 203 202 205 207 200 207 212 213 208 208 207 208 208 208 209 210 213 217 220 221 227 224 225 224 229 224 222 223 224 237 244 244 241 242 242 249 253 258 266
213 216 201 112 320 112 243 296 301 247 265 209 194 192 199 201 206 213 211 209 209 208 211 211 211 213 215 217 218 216 222 220 221 231 235 234 230 231 238 239 239 237 242 247 244 244 258 259 261
151 164 144 18 134 200 243 270 274 225 225 232 192 200 204 200 203 210 212 211 210 210 211 213 215 217 220 219 217 218 220 223 225 232 231 228 229 233 232 232 236 236 240 244 248 246 251 259 263
73 170 20 125 128 163 180 249 312 258 217 202 207 223 214 201 203 206 211 211 211 212 211 213 212 213 218 224 224 220 222 218 226 226 229 234 231 228 227 228 234 232 233 240 254 255 249 252 259
94 85 154 142 221 239 178 278 347 343 37 166 230 220 215 201 199 205 208 211 211 213 213 213 216 214 213 217 224 226 223 226 223 227 234 235 229 226 234 239 236 232 236 244 255 248 242 248 257